This demonstration page uses our WeatherBlox Daily Observations layout. Learn more.

Left ArrowRight Arrow

39.01783, -85.05884

Hourly Observations for March 23, 2022

Temp ( °F °C ) Dew Point ( °F °C ) Humidity (%) Winds ( mph kmh ) Pressure ( in mb ) Visibility ( mi km ) Precip ( " mm )
12:24 am 00:24 Cloudy with Light Rain 61 16.1 44 6.7 54 54 S 8 13 29.74 1007 10 16 0.00 0.00
12:52 am 00:52 Cloudy 62 16.7 44 6.7 52 52 SSE 13 20 29.72 1006 10 16 0.00 0.00
1:52 am 01:52 Cloudy 63 17.2 43 6.1 48 48 S 10 17 29.71 1006 10 16 0.00 0.00
2:13 am 02:13 Cloudy 63 17.2 44 6.7 50 50 S 9 15 29.71 1006 10 16 0.00 0.00
2:52 am 02:52 Cloudy 62 16.7 45 7.2 54 54 SSE 10 17 29.68 1005 10 16 0.00 0.00
3:52 am 03:52 Partly Cloudy 61 16.1 47 8.3 60 60 SSE 16 26 29.65 1004 10 16 0.00 0.00
4:52 am 04:52 Mostly Cloudy 61 16.1 47 8.3 60 60 SSE 14 22 29.62 1003 10 16 0.00 0.00
5:52 am 05:52 Mostly Cloudy 62 16.7 48 8.9 60 60 SSE 18 30 29.61 1003 10 16 0.00 0.00
6:52 am 06:52 Cloudy 62 16.7 49 9.4 62 62 SSE 22 35 29.61 1003 10 16 0.00 0.00
7:52 am 07:52 Cloudy 61 16.1 50 10 67 67 SSE 15 24 29.61 1003 10 16 0.00 0.00
8:52 am 08:52 Cloudy 61 16.1 52 11.1 72 72 S 15 24 29.61 1003 10 16 0.00 0.00
9:08 am 09:08 Cloudy 62 16.7 52 11.1 70 70 SSE 16 26 29.62 1003 10 16 0.00 0.00
9:52 am 09:52 Mostly Cloudy 63 17.2 54 12.2 73 73 S 16 26 29.60 1002 10 16 0.00 0.00
10:52 am 10:52 Cloudy 64 17.8 56 13.3 75 75 S 13 20 29.57 1001 10 16 0.00 0.00
11:32 am 11:32 Cloudy 65 18.3 57 13.9 76 76 S 13 20 29.56 1001 10 16 0.00 0.00
11:52 am 11:52 Cloudy 64 17.8 57 13.9 78 78 S 16 26 29.56 1001 10 16 0.00 0.00
11:59 am 11:59 Cloudy 64 17.8 56 13.3 75 75 SSE 17 28 29.56 1001 10 16 0.00 0.00
12:20 pm 12:20 Mostly Cloudy 67 19.4 58 14.4 73 73 S 17 28 29.54 1000 10 16 0.00 0.00
12:52 pm 12:52 Mostly Cloudy 67 19.4 58 14.4 73 73 S 18 30 29.52 1000 10 16 0.00 0.00
1:52 pm 13:52 Cloudy 67 19.4 58 14.4 73 73 SSE 16 26 29.49 999 10 16 0.00 0.00
2:28 pm 14:28 Cloudy with Heavy Rain 65 18.3 58 14.4 78 78 SW 29 46 29.50 999 2 3 0.00 0.00
2:33 pm 14:33 Cloudy with Heavy Rain 61 16.1 58 14.4 90 90 SW 24 39 29.51 999 4 6 0.08 2.03
2:40 pm 14:40 Cloudy 62 16.7 59 15 90 90 SW 15 24 29.50 999 10 16 0.11 2.79
2:52 pm 14:52 Mostly Cloudy 65 18.3 59 15 81 81 SW 13 20 29.49 999 10 16 0.11 2.79
3:52 pm 15:52 Partly Cloudy 68 20 53 11.7 59 59 SSW 23 37 29.48 998 10 16 0.00 0.00
4:52 pm 16:52 Partly Cloudy 67 19.4 47 8.3 49 49 SSW 22 35 29.48 998 10 16 0.00 0.00
4:55 pm 16:55 Mostly Cloudy with Thunderstorms 67 19.4 47 8.3 49 49 SSW 23 37 29.48 998 10 16 0.00 0.00
5:12 pm 17:12 Mostly Cloudy 63 17.2 51 10.6 65 65 WSW 13 20 29.52 1000 10 16 0.00 0.00
5:52 pm 17:52 Mostly Sunny 65 18.3 50 10 59 59 SW 18 30 29.51 999 10 16 0.00 0.00
6:52 pm 18:52 Mostly Cloudy 62 16.7 48 8.9 60 60 WSW 12 19 29.56 1001 10 16 0.00 0.00
7:52 pm 19:52 Mostly Cloudy 59 15 46 7.8 62 62 WSW 17 28 29.60 1003 10 16 0.00 0.00
8:52 pm 20:52 Cloudy 53 11.7 42 5.6 66 66 WSW 21 33 29.67 1005 10 16 0.00 0.00
9:52 pm 21:52 Mostly Clear 50 10 40 4.4 68 68 SW 18 30 29.71 1006 10 16 0.00 0.00
10:52 pm 22:52 Mostly Cloudy 50 10 39 3.9 66 66 SW 20 31 29.73 1007 10 16 0.00 0.00
11:52 pm 23:52 Mostly Cloudy 49 9.4 39 3.9 69 69 WSW 14 22 29.75 1007 10 16 0.00 0.00

Powered by AerisWeather